Location: Taupo
(38.6830°S, 176.0830°E)
Time: 16:33:33
(UTC+13:00)

SPOT 1/Viking Rocket - Pass Details

Date: 24 January 2019
Orbit: 777 x 795 km, 98.5° (Epoch: 19 February)

Event Time Altitude Azimuth Distance (km) Brightness Sun altitude
Rises 23:02:34 0° 159° (SSE) 3,332 7.2 -22.9°
Reaches altitude 10° 23:05:05 10° 151° (SSE) 2,394 6.3 -23.1°
Enters shadow 23:09:29 38° 97° (E) 1,212 4.2 -23.7°
